Regional Weather Roundup
Issued by NWS Northern Indiana

Home | Current Version | Previous Version | Graphics & Text | Print | Product List | Glossary On
Versions: 1 2 3 4 5 6 7 8 9 10 11 12 13 14 15 16 17 18 19 20 21 22 23 24 25 26 27 28 29 30 31 32 33 34 35 36 37 38 39 40 41 42 43 44 45 46 47 48 49 50
000
ASUS43 KIWX 050300
RWRIWX

KIWX WEATHER ROUNDUP
NATIONAL WEATHER SERVICE NORTHERN INDIANA
1100 PM EDT FRI SEP 04 2015

NOTE: "FAIR" INDICATES FEW OR NO CLOUDS BELOW 12,000 FEET WITH NO
SIGNIFICANT WEATHER AND/OR OBSTRUCTIONS TO VISIBILITY.

* THESE STATIONS ARE NOT UNDER NWS QUALITY CONTROL. THEY ALSO MAY NOT
  REPORT WEATHER SUCH AS PRECIPITATION OR FOG.

INZ001>027-050400-
NORTHERN INDIANA

CITY           SKY/WX    TMP DP  RH WIND       PRES   REMARKS
GARY*          CLEAR     72  66  83 CALM      30.05S
SOUTH BEND     PTCLDY    71  68  90 NE3       30.07R
GOSHEN         MOCLDY    70  65  84 SE8       30.07R
ANGOLA*        CLEAR     70  63  78 S5        30.08S
FORT WAYNE     MOCLDY    67  64  90 SW6       30.09R
PERU/GRISSOM   MOCLDY    68  64  88 NE3       30.07R

$$
INZ028>050-050400-
CENTRAL INDIANA

CITY           SKY/WX    TMP DP  RH WIND       PRES   REMARKS
LAFAYETTE      CLOUDY    71  64  78 S5        30.07R
KOKOMO*        MOCLDY    68  63  83 CALM      30.09R
MUNCIE*        CLOUDY    68  63  84 SE6       30.09R
INDIANAPOLIS   CLOUDY    72  65  78 S5        30.08S

$$
MIZ043>046-050>051-056>058-064>065-071>073-077>080-050400-
SOUTHWEST LOWER MICHIGAN

CITY           SKY/WX    TMP DP  RH WIND       PRES   REMARKS
BATTLE CREEK   PTCLDY    70  67  90 CALM      30.07S
BENTON HARBOR  CLEAR     66  64  93 CALM      30.06R FOG
COLDWATER*     MOCLDY    70  70  99 CALM      30.08R
HILLSDALE*     PTCLDY    69  69 100 CALM      30.09S FOG
HOLLAND        CLEAR     66  64  93 CALM      30.07R FOG
GRAND RAPIDS   CLEAR     69  67  93 CALM      30.06S
KALAMAZOO      PTCLDY    71  66  84 CALM      30.07R
STURGIS*       PTCLDY    70  70 100 CALM      30.07S
THREE RIVERS*  MOCLDY    73  69  86 CALM      30.07S

$$
OHZ001>008-015>018-024>025-050400-
NORTHWEST OHIO

CITY           SKY/WX    TMP DP  RH WIND       PRES   REMARKS
DEFIANCE       MOCLDY    72  67  84 S3        30.08R
FINDLAY        MOCLDY    70  66  87 SE7       30.09F
TOLEDO EXPRESS MOCLDY    68  66  93 S3        30.07S
TOLEDO METCALF PTCLDY    71  64  78 SW6       30.08R
LIMA           PTCLDY    68  64  87 SW3       30.10S

$$
AND FOR LAKE MICHIGAN COASTAL AND OPEN LAKE BUOY OBSERVATIONS

STATION/POSITION TEMP    WIND        PRES    VSBY  WAVE
                 AIR SEA DIR/SP/G                  HT/PER
                 (F)     (DEG/KT/KT) (MB)    (MI)  (FT/S)
CALUMET HARBOR    72      30/  4/  5   N/A
MICHIGAN CITY     71      90/  3/  4   N/A
BURNS HARBOR      72      70/ 11/ 13 1017.9R
SAINT JOSEPH      69      CALM  /  2 1017.9S
SOUTH LAKE BUOY   68 71   90/  4/  4 1017.7
4 MI NW BRIDGMAN  71 76   50/  4/  6   N/A           1
MICHIGAN CITY     72 74   80/  4/  6   N/A           1/ 4

$$
&&



USA.gov is the U.S. government's official web portal to all federal, state and local government web resources and services.